Change the Weather History Date:

Sunday, December 30, 2012

  Actual Average (KMML) Record (KMML)
Temperature  
Mean Temperature 16 °F -  
Max Temperature 31 °F 22 °F 55 °F (2004)
Min Temperature 2 °F 4 °F -25 °F (1973)
Degree Days  
Heating Degree Days 48    
Moisture  
Dew Point 13 °F    
Average Humidity 80    
Maximum Humidity 96    
Minimum Humidity 58    
Precipitation  
Precipitation 0.00 in - - ()
Sea Level Pressure  
Sea Level Pressure 29.99 in    
Wind  
Wind Speed 8 mph (SW)    
Max Wind Speed 17 mph    
Max Gust Speed 23 mph    
Visibility 10 miles    
Events Snow    
Averages and records for this station are not official NWS values.
T = Trace of Precipitation, MM = Missing Value Source: NWS Daily Summary

Daily Weather History Graph

Daily Weather History Graph

Search for Another Location

Airport or City:

Trip Planner

Search our weather history database for the weather conditions in past years. The results will help you decide how hot, cold, wet, or windy it might be!

Date:

Astronomy

Dec. 30, 2012 Rise Set
Actual Time 8:02 AM CST 4:53 PM CST
Civil Twilight 7:28 AM CST 5:27 PM CST
Nautical Twilight 6:51 AM CST 6:04 PM CST
Astronomical Twilight 6:16 AM CST 6:39 PM CST
Moon 7:32 PM CST (12/30) 9:05 AM CST (12/30)
Length of Visible Light 9h 58m
Length of Day
8h 51m
Waning Gibbous, 95% of the Moon is Illuminated
Dec 30
Waning Gibbous
Jan 4
Last Quarter
Jan 11
New
Jan 18
First Quarter
Jan 26
Full

Hourly Weather History & Observations

Time (CST) Temp. Windchill Dew Point Humidity Pressure Visibility Wind Dir Wind Speed Gust Speed Precip Events Conditions
12:15 AM 5.5 °F -1.5 °F 3.2 °F 90% 30.12 in 10.0 mi SE 3.5 mph - N/A   Clear
12:56 AM 2.8 °F -4.6 °F 0.3 °F 89% 30.12 in 10.0 mi SSE 3.5 mph - N/A   Clear
1:15 AM 2.7 °F -4.8 °F 0.3 °F 90% 30.11 in 10.0 mi SSE 3.5 mph - N/A   Clear
1:35 AM 4.6 °F - 2.5 °F 91% 30.11 in 10.0 mi Calm Calm - N/A   Clear
1:56 AM 3.9 °F -5.3 °F 1.6 °F 90% 30.11 in 10.0 mi South 4.6 mph - N/A   Clear
2:15 AM 7.9 °F -0.7 °F 5.2 °F 89% 30.11 in 10.0 mi SE 4.6 mph - N/A   Clear
2:35 AM 6.8 °F -4.8 °F 5.0 °F 92% 30.09 in 10.0 mi SE 6.9 mph - N/A   Clear
2:56 AM 9.7 °F -1.3 °F 8.2 °F 94% 30.10 in 10.0 mi SE 6.9 mph - N/A   Clear
3:15 AM 9.7 °F -1.3 °F 7.7 °F 92% 30.10 in 10.0 mi SSE 6.9 mph - N/A   Clear
3:35 AM 8.8 °F -2.4 °F 6.8 °F 92% 30.10 in 10.0 mi SE 6.9 mph - N/A   Clear
3:56 AM 8.1 °F -3.2 °F 5.7 °F 90% 30.10 in 10.0 mi SE 6.9 mph - N/A   Clear
4:15 AM 6.3 °F -2.6 °F 4.1 °F 91% 30.09 in 10.0 mi ESE 4.6 mph - N/A   Clear
4:35 AM 6.1 °F - 3.9 °F 91% 30.08 in 10.0 mi Calm Calm - N/A   Clear
4:56 AM 5.5 °F -1.5 °F 3.6 °F 92% 30.07 in 10.0 mi East 3.5 mph - N/A   Clear
5:16 AM 7.5 °F -1.1 °F 5.4 °F 91% 30.07 in 10.0 mi SSE 4.6 mph - N/A   Clear
5:35 AM 15.3 °F 9.6 °F 13.6 °F 93% 30.06 in 10.0 mi SE 3.5 mph - N/A   Clear
6:16 AM 17.6 °F 10.7 °F 14.9 °F 89% 30.05 in 10.0 mi SE 4.6 mph - N/A   Clear
6:35 AM 16.3 °F 10.8 °F 13.1 °F 87% 30.05 in 10.0 mi SSE 3.5 mph - N/A   Clear
6:55 AM 9.1 °F 0.8 °F 7.5 °F 93% 30.05 in 10.0 mi SE 4.6 mph - N/A   Clear
7:16 AM 10.2 °F -0.6 °F 9.3 °F 96% 30.05 in 10.0 mi South 6.9 mph - N/A   Clear
7:35 AM 19.9 °F 13.4 °F 16.0 °F 85% 30.04 in 10.0 mi South 4.6 mph - N/A   Clear
7:55 AM 18.9 °F 12.1 °F 15.1 °F 85% 30.03 in 10.0 mi SSE 4.6 mph - N/A   Clear
8:16 AM 17.8 °F 10.9 °F 14.2 °F 86% 30.02 in 10.0 mi South 4.6 mph - N/A   Clear
8:35 AM 23.0 °F 14.7 °F 16.3 °F 76% 30.01 in 10.0 mi SSW 6.9 mph - N/A   Clear
8:55 AM 25.3 °F 14.1 °F 16.5 °F 69% 30.00 in 10.0 mi SSW 12.7 mph 18.4 mph N/A   Clear
9:15 AM 27.1 °F 14.9 °F 17.4 °F 67% 30.00 in 10.0 mi SSW 16.1 mph 21.9 mph N/A   Clear
9:35 AM 27.1 °F 15.4 °F 17.1 °F 66% 30.00 in 7.0 mi SSW 15.0 mph 23.0 mph N/A Snow Light Snow
9:55 AM 25.9 °F 14.8 °F 16.3 °F 67% 29.99 in 10.0 mi SSW 12.7 mph 19.6 mph N/A   Clear
10:16 AM 26.6 °F 14.7 °F 15.8 °F 64% 29.99 in 10.0 mi SSW 15.0 mph - N/A   Clear
10:35 AM 27.5 °F 18.0 °F 15.6 °F 61% 29.98 in 10.0 mi SSW 10.4 mph 17.3 mph N/A   Clear
10:55 AM 27.5 °F 16.8 °F 15.4 °F 61% 29.97 in 10.0 mi SSW 12.7 mph 17.3 mph N/A   Clear
11:15 AM 27.9 °F 19.8 °F 16.2 °F 62% 29.96 in 10.0 mi SSW 8.1 mph - N/A   Clear
11:35 AM 28.8 °F 17.9 °F 16.7 °F 61% 29.93 in 10.0 mi SSW 13.8 mph - N/A   Clear
11:55 AM 29.1 °F 19.4 °F 16.9 °F 60% 29.91 in 10.0 mi SSW 11.5 mph 17.3 mph N/A   Clear
12:15 PM 30.0 °F 21.1 °F 17.4 °F 59% 29.88 in 10.0 mi South 10.4 mph 17.3 mph N/A   Clear
12:36 PM 30.9 °F 21.7 °F 18.1 °F 59% 29.86 in 10.0 mi SSW 11.5 mph - N/A   Clear
12:55 PM 31.6 °F 21.6 °F 18.3 °F 58% 29.86 in 10.0 mi SSW 13.8 mph 19.6 mph N/A   Clear
1:15 PM 30.4 °F 19.5 °F 18.1 °F 60% 29.85 in 10.0 mi SSW 15.0 mph 19.6 mph N/A   Clear
1:35 PM 29.8 °F 19.3 °F 18.3 °F 62% 29.84 in 10.0 mi SSW 13.8 mph 21.9 mph N/A   Clear
1:55 PM 29.1 °F 18.9 °F 18.5 °F 65% 29.83 in 10.0 mi SSW 12.7 mph 21.9 mph N/A   Clear
2:15 PM 27.5 °F 18.0 °F 18.1 °F 68% 29.82 in 10.0 mi SSW 10.4 mph - N/A   Clear
2:36 PM 26.8 °F 21.4 °F 17.6 °F 68% 29.83 in 10.0 mi SSW 4.6 mph - N/A   Clear
2:55 PM 25.7 °F 17.1 °F 17.8 °F 72% 29.84 in 10.0 mi WSW 8.1 mph 19.6 mph N/A   Clear
3:15 PM 25.5 °F 21.3 °F 17.6 °F 72% 29.85 in 10.0 mi West 3.5 mph - N/A   Clear
3:35 PM 24.8 °F 16.9 °F 17.1 °F 72% 29.85 in 10.0 mi SW 6.9 mph - N/A   Clear
3:55 PM 24.1 °F 15.2 °F 17.1 °F 75% 29.87 in 10.0 mi WSW 8.1 mph - N/A   Clear
4:16 PM 23.0 °F 14.7 °F 16.5 °F 76% 29.86 in 10.0 mi WSW 6.9 mph - N/A   Clear
4:41 PM 22.1 °F 13.7 °F 16.3 °F 79% 29.87 in 10.0 mi West 6.9 mph - N/A   Clear
5:00 PM 21.6 °F 11.3 °F 15.6 °F 78% 29.88 in 10.0 mi West 9.2 mph - N/A   Clear
5:36 PM 20.3 °F 7.7 °F 14.9 °F 80% 29.91 in 10.0 mi West 12.7 mph - N/A   Clear
5:56 PM 19.4 °F 7.2 °F 14.0 °F 80% 29.92 in 10.0 mi West 11.5 mph - N/A   Clear
6:15 PM 18.3 °F 4.6 °F 13.1 °F 80% 29.93 in 10.0 mi WNW 13.8 mph - N/A   Clear
6:35 PM 19.0 °F 5.6 °F 13.5 °F 79% 29.92 in 10.0 mi WNW 13.8 mph - N/A   Clear
6:56 PM 18.9 °F 3.8 °F 13.1 °F 78% 29.94 in 10.0 mi WNW 17.3 mph - N/A   Clear
7:15 PM 18.5 °F 4.3 °F 12.9 °F 79% 29.95 in 10.0 mi WNW 15.0 mph - N/A   Clear
7:35 PM 18.5 °F 5.5 °F 13.1 °F 79% 29.96 in 10.0 mi WNW 12.7 mph - N/A   Clear
7:55 PM 18.1 °F 5.0 °F 13.1 °F 81% 29.97 in 10.0 mi WNW 12.7 mph - N/A   Clear
8:15 PM 18.3 °F 4.6 °F 14.0 °F 83% 29.97 in 10.0 mi WNW 13.8 mph 18.4 mph N/A   Clear
8:36 PM 19.0 °F 5.6 °F 15.4 °F 86% 29.99 in 10.0 mi WNW 13.8 mph - N/A   Scattered Clouds
8:55 PM 20.5 °F 6.9 °F 17.2 °F 87% 29.99 in 10.0 mi NW 15.0 mph 20.7 mph N/A   Mostly Cloudy
9:16 PM 21.0 °F 8.1 °F 17.6 °F 87% 30.00 in 10.0 mi NW 13.8 mph 18.4 mph N/A   Mostly Cloudy
9:35 PM 20.8 °F 7.9 °F 17.6 °F 87% 30.02 in 10.0 mi NW 13.8 mph 18.4 mph N/A   Mostly Cloudy
9:55 PM 21.2 °F 7.8 °F 18.3 °F 89% 30.03 in 10.0 mi NW 15.0 mph - N/A   Overcast
10:15 PM 21.2 °F 7.3 °F 18.5 °F 89% 30.03 in 10.0 mi NW 16.1 mph 20.7 mph N/A   Overcast
10:35 PM 21.6 °F 7.3 °F 18.5 °F 88% 30.04 in 10.0 mi NNW 17.3 mph 21.9 mph N/A   Overcast
10:55 PM 21.9 °F 9.8 °F 19.0 °F 89% 30.05 in 10.0 mi NNW 12.7 mph - N/A   Overcast
11:15 PM 22.1 °F 9.5 °F 19.4 °F 89% 30.06 in 10.0 mi NW 13.8 mph - N/A   Overcast
11:36 PM 21.0 °F 7.6 °F 17.4 °F 86% 30.07 in 10.0 mi NNW 15.0 mph 20.7 mph N/A   Overcast
11:55 PM 20.1 °F 8.1 °F 16.7 °F 87% 30.08 in 10.0 mi NNW 11.5 mph - N/A   Overcast